Time,TemperatureF,DewpointF,PressureIn,WindDirection,WindDirectionDegrees,WindSpeedMPH,WindSpeedGustMPH,Humidity,HourlyPrecipIn,Conditions,Clouds,dailyrainin,SoftwareType,DateUTC
2013-02-07 00:01:00,23.7,-1.8,29.09,North,-999,-999.0,-999.0,32,-99.99,,,-99.99,VWS V14.01,2013-02-07 05:01:00,
2013-02-07 00:03:00,23.7,-1.8,29.09,North,-999,-999.0,-999.0,32,-99.99,,,-99.99,VWS V14.01,2013-02-07 05:03:00,
2013-02-07 00:04:00,23.7,-1.8,29.09,North,-999,-999.0,-999.0,32,-99.99,,,-99.99,VWS V14.01,2013-02-07 05:04:00,
2013-02-07 00:10:00,23.7,-1.8,29.09,North,-999,-999.0,-999.0,32,-99.99,,,-99.99,VWS V14.01,2013-02-07 05:10:00,
2013-02-07 00:14:00,23.7,-3.9,29.09,North,-999,-999.0,-999.0,29,-99.99,,,-99.99,VWS V14.01,2013-02-07 05:14:00,
2013-02-07 00:20:00,23.7,-3.9,29.09,North,-999,-999.0,-999.0,29,-99.99,,,-99.99,VWS V14.01,2013-02-07 05:20:00,
2013-02-07 00:26:00,23.7,-3.9,29.09,North,-999,-999.0,-999.0,29,-99.99,,,-99.99,VWS V14.01,2013-02-07 05:26:00,
2013-02-07 00:32:00,23.7,-3.9,29.09,North,-999,-999.0,-999.0,29,-99.99,,,-99.99,VWS V14.01,2013-02-07 05:32:00,
2013-02-07 00:37:00,23.7,-3.9,29.09,North,-999,-999.0,-999.0,29,-99.99,,,-99.99,VWS V14.01,2013-02-07 05:37:00,
2013-02-07 00:43:00,23.7,-5.4,29.09,North,-999,-999.0,-999.0,27,-99.99,,,-99.99,VWS V14.01,2013-02-07 05:43:00,
2013-02-07 00:48:00,23.7,-3.9,29.09,North,-999,-999.0,-999.0,29,-99.99,,,-99.99,VWS V14.01,2013-02-07 05:48:00,
2013-02-07 00:53:00,23.7,-3.9,29.09,North,-999,-999.0,-999.0,29,-99.99,,,-99.99,VWS V14.01,2013-02-07 05:53:00,
2013-02-07 00:59:00,23.7,-3.9,29.09,North,-999,-999.0,-999.0,29,-99.99,,,-99.99,VWS V14.01,2013-02-07 05:59:00,
2013-02-07 01:04:00,23.7,-3.9,29.09,North,-999,-999.0,-999.0,29,-99.99,,,-99.99,VWS V14.01,2013-02-07 06:04:00,
2013-02-07 01:10:00,23.7,-3.9,29.09,North,-999,-999.0,-999.0,29,-99.99,,,-99.99,VWS V14.01,2013-02-07 06:10:00,
2013-02-07 01:16:00,23.7,-1.8,29.09,North,-999,-999.0,-999.0,32,-99.99,,,-99.99,VWS V14.01,2013-02-07 06:16:00,
2013-02-07 01:21:00,23.7,-1.8,29.09,North,-999,-999.0,-999.0,32,-99.99,,,-99.99,VWS V14.01,2013-02-07 06:21:00,
2013-02-07 01:26:00,23.5,-2.0,29.09,North,-999,-999.0,-999.0,32,-99.99,,,-99.99,VWS V14.01,2013-02-07 06:26:00,
2013-02-07 01:32:00,23.5,-2.0,29.09,North,-999,-999.0,-999.0,32,-99.99,,,-99.99,VWS V14.01,2013-02-07 06:32:00,
2013-02-07 01:37:00,23.5,-2.0,29.09,North,-999,-999.0,-999.0,32,-99.99,,,-99.99,VWS V14.01,2013-02-07 06:37:00,
2013-02-07 01:42:00,23.5,-2.0,29.09,North,-999,-999.0,-999.0,32,-99.99,,,-99.99,VWS V14.01,2013-02-07 06:42:00,
2013-02-07 01:47:00,23.5,-2.0,29.09,North,-999,-999.0,-999.0,32,-99.99,,,-99.99,VWS V14.01,2013-02-07 06:47:00,
2013-02-07 01:53:00,23.5,-2.0,29.09,North,-999,-999.0,-999.0,32,-99.99,,,-99.99,VWS V14.01,2013-02-07 06:53:00,
2013-02-07 01:59:00,23.5,-1.3,29.09,North,-999,-999.0,-999.0,33,-99.99,,,-99.99,VWS V14.01,2013-02-07 06:59:00,
2013-02-07 02:04:00,23.5,-1.3,29.06,North,-999,-999.0,-999.0,33,-99.99,,,-99.99,VWS V14.01,2013-02-07 07:04:00,
2013-02-07 02:10:00,23.5,-1.3,29.06,North,-999,-999.0,-999.0,33,-99.99,,,-99.99,VWS V14.01,2013-02-07 07:10:00,
2013-02-07 02:15:00,23.5,-1.3,29.06,North,-999,-999.0,-999.0,33,-99.99,,,-99.99,VWS V14.01,2013-02-07 07:15:00,
2013-02-07 02:20:00,23.7,-1.2,29.09,North,-999,-999.0,-999.0,33,-99.99,,,-99.99,VWS V14.01,2013-02-07 07:20:00,
2013-02-07 02:25:00,23.7,-1.2,29.09,North,-999,-999.0,-999.0,33,-99.99,,,-99.99,VWS V14.01,2013-02-07 07:25:00,
2013-02-07 02:30:00,23.7,-1.2,29.09,North,-999,-999.0,-999.0,33,-99.99,,,-99.99,VWS V14.01,2013-02-07 07:30:00,
2013-02-07 02:36:00,23.5,-1.3,29.09,North,-999,-999.0,-999.0,33,-99.99,,,-99.99,VWS V14.01,2013-02-07 07:36:00,
2013-02-07 02:41:00,23.5,-1.3,29.09,North,-999,-999.0,-999.0,33,-99.99,,,-99.99,VWS V14.01,2013-02-07 07:41:00,
2013-02-07 02:46:00,23.5,-1.3,29.09,North,-999,-999.0,-999.0,33,-99.99,,,-99.99,VWS V14.01,2013-02-07 07:46:00,
2013-02-07 02:52:00,23.5,-1.3,29.09,North,-999,-999.0,-999.0,33,-99.99,,,-99.99,VWS V14.01,2013-02-07 07:52:00,
2013-02-07 02:57:00,23.5,-0.7,29.09,North,-999,-999.0,-999.0,34,-99.99,,,-99.99,VWS V14.01,2013-02-07 07:57:00,
2013-02-07 03:02:00,23.5,-0.7,29.09,North,-999,-999.0,-999.0,34,-99.99,,,-99.99,VWS V14.01,2013-02-07 08:02:00,
2013-02-07 03:08:00,23.5,-0.7,29.09,North,-999,-999.0,-999.0,34,-99.99,,,-99.99,VWS V14.01,2013-02-07 08:08:00,
2013-02-07 03:13:00,23.5,-0.7,29.09,North,-999,-999.0,-999.0,34,-99.99,,,-99.99,VWS V14.01,2013-02-07 08:13:00,
2013-02-07 03:18:00,23.5,-1.3,29.09,North,-999,-999.0,-999.0,33,-99.99,,,-99.99,VWS V14.01,2013-02-07 08:18:00,
2013-02-07 03:23:00,23.5,-1.3,29.09,North,-999,-999.0,-999.0,33,-99.99,,,-99.99,VWS V14.01,2013-02-07 08:23:00,
2013-02-07 03:29:00,23.5,-1.3,29.09,North,-999,-999.0,-999.0,33,-99.99,,,-99.99,VWS V14.01,2013-02-07 08:29:00,
2013-02-07 03:34:00,23.5,-1.3,29.06,North,-999,-999.0,-999.0,33,-99.99,,,-99.99,VWS V14.01,2013-02-07 08:34:00,
2013-02-07 03:39:00,23.5,-1.3,29.06,North,-999,-999.0,-999.0,33,-99.99,,,-99.99,VWS V14.01,2013-02-07 08:39:00,
2013-02-07 03:45:00,23.5,-1.3,29.06,North,-999,-999.0,-999.0,33,-99.99,,,-99.99,VWS V14.01,2013-02-07 08:45:00,
2013-02-07 03:51:00,23.5,-1.3,29.09,North,-999,-999.0,-999.0,33,-99.99,,,-99.99,VWS V14.01,2013-02-07 08:51:00,
2013-02-07 03:57:00,23.5,-1.3,29.09,North,-999,-999.0,-999.0,33,-99.99,,,-99.99,VWS V14.01,2013-02-07 08:57:00,
2013-02-07 04:02:00,23.5,-1.3,29.09,North,-999,-999.0,-999.0,33,-99.99,,,-99.99,VWS V14.01,2013-02-07 09:02:00,
2013-02-07 04:08:00,23.5,-1.3,29.09,North,-999,-999.0,-999.0,33,-99.99,,,-99.99,VWS V14.01,2013-02-07 09:08:00,
2013-02-07 04:13:00,23.5,-1.3,29.09,North,-999,-999.0,-999.0,33,-99.99,,,-99.99,VWS V14.01,2013-02-07 09:13:00,
2013-02-07 04:18:00,23.4,-1.5,29.06,North,-999,-999.0,-999.0,33,-99.99,,,-99.99,VWS V14.01,2013-02-07 09:18:00,
2013-02-07 04:24:00,23.4,-2.1,29.06,North,-999,-999.0,-999.0,32,-99.99,,,-99.99,VWS V14.01,2013-02-07 09:24:00,
2013-02-07 04:29:00,23.4,-2.1,29.06,North,-999,-999.0,-999.0,32,-99.99,,,-99.99,VWS V14.01,2013-02-07 09:29:00,
2013-02-07 04:34:00,23.4,-2.1,29.06,North,-999,-999.0,-999.0,32,-99.99,,,-99.99,VWS V14.01,2013-02-07 09:34:00,
2013-02-07 04:39:00,23.4,-2.1,29.06,North,-999,-999.0,-999.0,32,-99.99,,,-99.99,VWS V14.01,2013-02-07 09:39:00,
2013-02-07 04:44:00,23.5,-2.0,29.06,North,-999,-999.0,-999.0,32,-99.99,,,-99.99,VWS V14.01,2013-02-07 09:44:00,
2013-02-07 04:50:00,23.5,-2.0,29.06,North,-999,-999.0,-999.0,32,-99.99,,,-99.99,VWS V14.01,2013-02-07 09:50:00,
2013-02-07 04:56:00,23.5,-2.0,29.06,North,-999,-999.0,-999.0,32,-99.99,,,-99.99,VWS V14.01,2013-02-07 09:56:00,
2013-02-07 05:01:00,23.5,-2.0,29.06,North,-999,-999.0,-999.0,32,-99.99,,,-99.99,VWS V14.01,2013-02-07 10:01:00,
2013-02-07 05:06:00,23.5,-2.0,29.06,North,-999,-999.0,-999.0,32,-99.99,,,-99.99,VWS V14.01,2013-02-07 10:06:00,
2013-02-07 05:12:00,23.7,-1.8,29.06,North,-999,-999.0,-999.0,32,-99.99,,,-99.99,VWS V14.01,2013-02-07 10:12:00,
2013-02-07 05:17:00,23.7,-1.8,29.03,North,-999,-999.0,-999.0,32,-99.99,,,-99.99,VWS V14.01,2013-02-07 10:17:00,
2013-02-07 05:22:00,23.7,-1.8,29.03,North,-999,-999.0,-999.0,32,-99.99,,,-99.99,VWS V14.01,2013-02-07 10:22:00,
2013-02-07 05:27:00,23.7,-1.8,29.03,North,-999,-999.0,-999.0,32,-99.99,,,-99.99,VWS V14.01,2013-02-07 10:27:00,
2013-02-07 05:32:00,23.7,-1.8,29.03,North,-999,-999.0,-999.0,32,-99.99,,,-99.99,VWS V14.01,2013-02-07 10:32:00,
2013-02-07 05:37:00,23.7,-1.8,29.03,North,-999,-999.0,-999.0,32,-99.99,,,-99.99,VWS V14.01,2013-02-07 10:37:00,
2013-02-07 05:42:00,23.7,-1.8,29.03,North,-999,-999.0,-999.0,32,-99.99,,,-99.99,VWS V14.01,2013-02-07 10:42:00,
2013-02-07 05:48:00,23.9,-1.7,29.03,North,-999,-999.0,-999.0,32,-99.99,,,-99.99,VWS V14.01,2013-02-07 10:48:00,
2013-02-07 05:54:00,23.9,-1.7,29.03,North,-999,-999.0,-999.0,32,-99.99,,,-99.99,VWS V14.01,2013-02-07 10:54:00,
2013-02-07 05:59:00,23.9,-1.7,29.03,North,-999,-999.0,-999.0,32,-99.99,,,-99.99,VWS V14.01,2013-02-07 10:59:00,
2013-02-07 06:04:00,23.9,-1.7,29.03,North,-999,-999.0,-999.0,32,-99.99,,,-99.99,VWS V14.01,2013-02-07 11:04:00,
2013-02-07 06:09:00,23.9,-1.0,29.03,North,-999,-999.0,-999.0,33,-99.99,,,-99.99,VWS V14.01,2013-02-07 11:09:00,
2013-02-07 06:15:00,24.1,-0.9,29.03,North,-999,-999.0,-999.0,33,-99.99,,,-99.99,VWS V14.01,2013-02-07 11:15:00,
2013-02-07 06:20:00,24.1,-0.9,29.03,North,-999,-999.0,-999.0,33,-99.99,,,-99.99,VWS V14.01,2013-02-07 11:20:00,
2013-02-07 06:25:00,24.1,-0.9,29.03,North,-999,-999.0,-999.0,33,-99.99,,,-99.99,VWS V14.01,2013-02-07 11:25:00,
2013-02-07 06:30:00,24.1,-0.9,29.03,North,-999,-999.0,-999.0,33,-99.99,,,-99.99,VWS V14.01,2013-02-07 11:30:00,
2013-02-07 06:35:00,24.3,-0.7,29.00,North,-999,-999.0,-999.0,33,-99.99,,,-99.99,VWS V14.01,2013-02-07 11:35:00,
2013-02-07 06:41:00,24.3,-0.7,29.00,North,-999,-999.0,-999.0,33,-99.99,,,-99.99,VWS V14.01,2013-02-07 11:41:00,
2013-02-07 06:46:00,24.4,0.1,29.00,North,-999,-999.0,-999.0,34,-99.99,,,-99.99,VWS V14.01,2013-02-07 11:46:00,
2013-02-07 06:51:00,24.4,0.1,29.00,North,-999,-999.0,-999.0,34,-99.99,,,-99.99,VWS V14.01,2013-02-07 11:51:00,
2013-02-07 06:56:00,24.4,0.1,29.00,North,-999,-999.0,-999.0,34,-99.99,,,-99.99,VWS V14.01,2013-02-07 11:56:00,
2013-02-07 07:02:00,24.4,0.7,29.03,North,-999,-999.0,-999.0,35,-99.99,,,-99.99,VWS V14.01,2013-02-07 12:02:00,
2013-02-07 07:08:00,24.4,0.7,29.03,North,-999,-999.0,-999.0,35,-99.99,,,-99.99,VWS V14.01,2013-02-07 12:08:00,
2013-02-07 07:13:00,24.4,0.7,29.03,North,-999,-999.0,-999.0,35,-99.99,,,-99.99,VWS V14.01,2013-02-07 12:13:00,
2013-02-07 07:18:00,24.4,0.7,29.03,North,-999,-999.0,-999.0,35,-99.99,,,-99.99,VWS V14.01,2013-02-07 12:18:00,
2013-02-07 07:24:00,24.4,0.7,29.03,North,-999,-999.0,-999.0,35,-99.99,,,-99.99,VWS V14.01,2013-02-07 12:24:00,
2013-02-07 07:29:00,24.4,0.7,29.03,North,-999,-999.0,-999.0,35,-99.99,,,-99.99,VWS V14.01,2013-02-07 12:29:00,
2013-02-07 07:34:00,24.6,0.9,29.03,North,-999,-999.0,-999.0,35,-99.99,,,-99.99,VWS V14.01,2013-02-07 12:34:00,
2013-02-07 07:39:00,24.6,0.9,29.03,North,-999,-999.0,-999.0,35,-99.99,,,-99.99,VWS V14.01,2013-02-07 12:39:00,
2013-02-07 07:45:00,24.6,0.3,29.03,North,-999,-999.0,-999.0,34,-99.99,,,-99.99,VWS V14.01,2013-02-07 12:45:00,
2013-02-07 07:51:00,24.8,0.4,29.00,North,-999,-999.0,-999.0,34,-99.99,,,-99.99,VWS V14.01,2013-02-07 12:51:00,
2013-02-07 07:56:00,25.0,-0.1,29.00,North,-999,-999.0,-999.0,33,-99.99,,,-99.99,VWS V14.01,2013-02-07 12:56:00,
2013-02-07 08:01:00,25.2,0.1,29.03,North,-999,-999.0,-999.0,33,-99.99,,,-99.99,VWS V14.01,2013-02-07 13:01:00,
2013-02-07 08:07:00,25.3,-0.4,29.03,North,-999,-999.0,-999.0,32,-99.99,,,-99.99,VWS V14.01,2013-02-07 13:07:00,
2013-02-07 08:12:00,25.3,-0.4,29.03,North,-999,-999.0,-999.0,32,-99.99,,,-99.99,VWS V14.01,2013-02-07 13:12:00,
2013-02-07 08:17:00,25.5,-0.2,29.00,North,-999,-999.0,-999.0,32,-99.99,,,-99.99,VWS V14.01,2013-02-07 13:17:00,
2013-02-07 08:22:00,25.7,-0.1,29.00,North,-999,-999.0,-999.0,32,-99.99,,,-99.99,VWS V14.01,2013-02-07 13:22:00,
2013-02-07 08:28:00,25.9,0.1,29.00,North,-999,-999.0,-999.0,32,-99.99,,,-99.99,VWS V14.01,2013-02-07 13:28:00,
2013-02-07 08:34:00,26.1,0.2,29.00,North,-999,-999.0,-999.0,32,-99.99,,,-99.99,VWS V14.01,2013-02-07 13:34:00,
2013-02-07 08:40:00,26.2,0.4,29.00,North,-999,-999.0,-999.0,32,-99.99,,,-99.99,VWS V14.01,2013-02-07 13:40:00,
2013-02-07 08:46:00,26.4,0.6,29.03,North,-999,-999.0,-999.0,32,-99.99,,,-99.99,VWS V14.01,2013-02-07 13:46:00,
2013-02-07 08:51:00,26.6,0.7,29.03,North,-999,-999.0,-999.0,32,-99.99,,,-99.99,VWS V14.01,2013-02-07 13:51:00,
2013-02-07 08:57:00,26.8,0.2,29.03,North,-999,-999.0,-999.0,31,-99.99,,,-99.99,VWS V14.01,2013-02-07 13:57:00,
2013-02-07 09:02:00,27.0,0.4,29.00,North,-999,-999.0,-999.0,31,-99.99,,,-99.99,VWS V14.01,2013-02-07 14:02:00,
2013-02-07 09:07:00,27.0,0.4,29.00,North,-999,-999.0,-999.0,31,-99.99,,,-99.99,VWS V14.01,2013-02-07 14:07:00,
2013-02-07 09:13:00,27.1,0.5,29.00,North,-999,-999.0,-999.0,31,-99.99,,,-99.99,VWS V14.01,2013-02-07 14:13:00,
2013-02-07 09:19:00,27.5,0.8,29.00,North,-999,-999.0,-999.0,31,-99.99,,,-99.99,VWS V14.01,2013-02-07 14:19:00,
2013-02-07 09:25:00,27.7,1.0,29.00,North,-999,-999.0,-999.0,31,-99.99,,,-99.99,VWS V14.01,2013-02-07 14:25:00,
2013-02-07 09:30:00,27.9,1.2,29.00,North,-999,-999.0,-999.0,31,-99.99,,,-99.99,VWS V14.01,2013-02-07 14:30:00,
2013-02-07 09:35:00,28.0,1.3,29.00,North,-999,-999.0,-999.0,31,-99.99,,,-99.99,VWS V14.01,2013-02-07 14:35:00,
2013-02-07 09:40:00,28.2,1.5,29.00,North,-999,-999.0,-999.0,31,-99.99,,,-99.99,VWS V14.01,2013-02-07 14:40:00,
2013-02-07 09:45:00,28.4,1.6,29.00,North,-999,-999.0,-999.0,31,-99.99,,,-99.99,VWS V14.01,2013-02-07 14:45:00,
2013-02-07 09:51:00,28.8,2.0,29.00,North,-999,-999.0,-999.0,31,-99.99,,,-99.99,VWS V14.01,2013-02-07 14:51:00,
2013-02-07 09:57:00,28.9,2.1,29.00,North,-999,-999.0,-999.0,31,-99.99,,,-99.99,VWS V14.01,2013-02-07 14:57:00,
2013-02-07 10:02:00,29.1,2.3,29.00,North,-999,-999.0,-999.0,31,-99.99,,,-99.99,VWS V14.01,2013-02-07 15:02:00,
2013-02-07 10:07:00,29.5,2.6,29.00,North,-999,-999.0,-999.0,31,-99.99,,,-99.99,VWS V14.01,2013-02-07 15:07:00,
2013-02-07 10:13:00,29.7,2.0,29.00,North,-999,-999.0,-999.0,30,-99.99,,,-99.99,VWS V14.01,2013-02-07 15:13:00,
2013-02-07 10:18:00,30.0,2.3,29.00,North,-999,-999.0,-999.0,30,-99.99,,,-99.99,VWS V14.01,2013-02-07 15:18:00,
2013-02-07 10:23:00,30.2,2.5,29.00,North,-999,-999.0,-999.0,30,-99.99,,,-99.99,VWS V14.01,2013-02-07 15:23:00,
2013-02-07 10:28:00,30.6,2.8,29.00,North,-999,-999.0,-999.0,30,-99.99,,,-99.99,VWS V14.01,2013-02-07 15:28:00,
2013-02-07 10:33:00,30.9,3.1,29.00,North,-999,-999.0,-999.0,30,-99.99,,,-99.99,VWS V14.01,2013-02-07 15:33:00,
2013-02-07 10:39:00,31.1,1.8,29.00,North,-999,-999.0,-999.0,28,-99.99,,,-99.99,VWS V14.01,2013-02-07 15:39:00,
2013-02-07 10:44:00,31.1,1.8,29.00,North,-999,-999.0,-999.0,28,-99.99,,,-99.99,VWS V14.01,2013-02-07 15:44:00,
2013-02-07 10:49:00,31.5,2.1,29.00,North,-999,-999.0,-999.0,28,-99.99,,,-99.99,VWS V14.01,2013-02-07 15:49:00,
2013-02-07 10:55:00,31.8,2.4,29.00,North,-999,-999.0,-999.0,28,-99.99,,,-99.99,VWS V14.01,2013-02-07 15:55:00,
2013-02-07 11:00:00,32.0,0.2,29.00,North,-999,-999.0,-999.0,25,-99.99,,,-99.99,VWS V14.01,2013-02-07 16:00:00,
2013-02-07 11:05:00,32.4,0.5,29.00,North,-999,-999.0,-999.0,25,-99.99,,,-99.99,VWS V14.01,2013-02-07 16:05:00,
2013-02-07 11:10:00,32.4,0.5,29.00,North,-999,-999.0,-999.0,25,-99.99,,,-99.99,VWS V14.01,2013-02-07 16:10:00,
2013-02-07 11:16:00,32.2,0.3,29.00,North,-999,-999.0,-999.0,25,-99.99,,,-99.99,VWS V14.01,2013-02-07 16:16:00,
2013-02-07 11:22:00,32.4,0.5,29.00,North,-999,-999.0,-999.0,25,-99.99,,,-99.99,VWS V14.01,2013-02-07 16:22:00,
2013-02-07 11:27:00,32.5,0.6,29.00,North,-999,-999.0,-999.0,25,-99.99,,,-99.99,VWS V14.01,2013-02-07 16:27:00,
2013-02-07 11:33:00,32.5,0.6,29.00,North,-999,-999.0,-999.0,25,-99.99,,,-99.99,VWS V14.01,2013-02-07 16:33:00,
2013-02-07 11:39:00,32.7,3.2,29.00,North,-999,-999.0,-999.0,28,-99.99,,,-99.99,VWS V14.01,2013-02-07 16:39:00,
2013-02-07 11:44:00,32.7,0.8,29.00,North,-999,-999.0,-999.0,25,-99.99,,,-99.99,VWS V14.01,2013-02-07 16:44:00,
2013-02-07 11:50:00,32.7,0.8,29.00,North,-999,-999.0,-999.0,25,-99.99,,,-99.99,VWS V14.01,2013-02-07 16:50:00,
2013-02-07 11:56:00,32.9,3.4,29.00,North,-999,-999.0,-999.0,28,-99.99,,,-99.99,VWS V14.01,2013-02-07 16:56:00,
2013-02-07 12:01:00,32.9,0.9,28.97,North,-999,-999.0,-999.0,25,-99.99,,,-99.99,VWS V14.01,2013-02-07 17:01:00,
2013-02-07 12:07:00,32.9,0.9,28.97,North,-999,-999.0,-999.0,25,-99.99,,,-99.99,VWS V14.01,2013-02-07 17:07:00,
2013-02-07 12:12:00,33.3,1.2,28.97,North,-999,-999.0,-999.0,25,-99.99,,,-99.99,VWS V14.01,2013-02-07 17:12:00,
2013-02-07 12:17:00,33.3,1.2,28.97,North,-999,-999.0,-999.0,25,-99.99,,,-99.99,VWS V14.01,2013-02-07 17:17:00,
2013-02-07 12:23:00,33.4,1.4,28.97,North,-999,-999.0,-999.0,25,-99.99,,,-99.99,VWS V14.01,2013-02-07 17:23:00,
2013-02-07 12:29:00,33.6,1.6,28.97,North,-999,-999.0,-999.0,25,-99.99,,,-99.99,VWS V14.01,2013-02-07 17:29:00,
2013-02-07 12:35:00,33.8,1.7,28.97,North,-999,-999.0,-999.0,25,-99.99,,,-99.99,VWS V14.01,2013-02-07 17:35:00,
2013-02-07 12:41:00,34.0,1.9,28.97,North,-999,-999.0,-999.0,25,-99.99,,,-99.99,VWS V14.01,2013-02-07 17:41:00,
2013-02-07 12:46:00,34.2,2.0,28.94,North,-999,-999.0,-999.0,25,-99.99,,,-99.99,VWS V14.01,2013-02-07 17:46:00,
2013-02-07 12:51:00,34.2,2.0,28.94,North,-999,-999.0,-999.0,25,-99.99,,,-99.99,VWS V14.01,2013-02-07 17:51:00,
2013-02-07 12:56:00,34.2,-0.7,28.94,North,-999,-999.0,-999.0,22,-99.99,,,-99.99,VWS V14.01,2013-02-07 17:56:00,
2013-02-07 13:02:00,34.3,-0.6,28.94,North,-999,-999.0,-999.0,22,-99.99,,,-99.99,VWS V14.01,2013-02-07 18:02:00,
2013-02-07 13:08:00,34.5,-0.4,28.94,North,-999,-999.0,-999.0,22,-99.99,,,-99.99,VWS V14.01,2013-02-07 18:08:00,
2013-02-07 13:13:00,34.7,-0.2,28.94,North,-999,-999.0,-999.0,22,-99.99,,,-99.99,VWS V14.01,2013-02-07 18:13:00,
2013-02-07 13:19:00,34.9,-0.1,28.94,North,-999,-999.0,-999.0,22,-99.99,,,-99.99,VWS V14.01,2013-02-07 18:19:00,
2013-02-07 13:24:00,35.1,0.1,28.94,North,-999,-999.0,-999.0,22,-99.99,,,-99.99,VWS V14.01,2013-02-07 18:24:00,
2013-02-07 13:29:00,35.2,0.2,28.94,North,-999,-999.0,-999.0,22,-99.99,,,-99.99,VWS V14.01,2013-02-07 18:29:00,
2013-02-07 13:35:00,35.4,0.4,28.94,North,-999,-999.0,-999.0,22,-99.99,,,-99.99,VWS V14.01,2013-02-07 18:35:00,
2013-02-07 13:40:00,35.6,0.5,28.94,North,-999,-999.0,-999.0,22,-99.99,,,-99.99,VWS V14.01,2013-02-07 18:40:00,
2013-02-07 13:45:00,35.4,0.4,28.94,North,-999,-999.0,-999.0,22,-99.99,,,-99.99,VWS V14.01,2013-02-07 18:45:00,
2013-02-07 13:50:00,35.4,0.4,28.94,North,-999,-999.0,-999.0,22,-99.99,,,-99.99,VWS V14.01,2013-02-07 18:50:00,
2013-02-07 13:56:00,35.6,0.5,28.94,North,-999,-999.0,-999.0,22,-99.99,,,-99.99,VWS V14.01,2013-02-07 18:56:00,
2013-02-07 14:01:00,35.6,0.5,28.91,North,-999,-999.0,-999.0,22,-99.99,,,-99.99,VWS V14.01,2013-02-07 19:01:00,
2013-02-07 14:06:00,35.6,0.5,28.91,North,-999,-999.0,-999.0,22,-99.99,,,-99.99,VWS V14.01,2013-02-07 19:06:00,
2013-02-07 14:11:00,35.4,0.4,28.91,North,-999,-999.0,-999.0,22,-99.99,,,-99.99,VWS V14.01,2013-02-07 19:11:00,
2013-02-07 14:17:00,34.9,-0.1,28.91,North,-999,-999.0,-999.0,22,-99.99,,,-99.99,VWS V14.01,2013-02-07 19:17:00,
2013-02-07 14:22:00,35.1,2.8,28.91,North,-999,-999.0,-999.0,25,-99.99,,,-99.99,VWS V14.01,2013-02-07 19:22:00,
2013-02-07 14:28:00,35.1,0.1,28.91,North,-999,-999.0,-999.0,22,-99.99,,,-99.99,VWS V14.01,2013-02-07 19:28:00,
2013-02-07 14:34:00,35.4,0.4,28.91,North,-999,-999.0,-999.0,22,-99.99,,,-99.99,VWS V14.01,2013-02-07 19:34:00,
2013-02-07 14:39:00,35.1,0.1,28.91,North,-999,-999.0,-999.0,22,-99.99,,,-99.99,VWS V14.01,2013-02-07 19:39:00,
2013-02-07 14:44:00,35.1,2.8,28.91,North,-999,-999.0,-999.0,25,-99.99,,,-99.99,VWS V14.01,2013-02-07 19:44:00,
2013-02-07 14:50:00,34.5,2.3,28.88,North,-999,-999.0,-999.0,25,-99.99,,,-99.99,VWS V14.01,2013-02-07 19:50:00,
2013-02-07 14:56:00,34.7,2.5,28.88,North,-999,-999.0,-999.0,25,-99.99,,,-99.99,VWS V14.01,2013-02-07 19:56:00,
2013-02-07 15:01:00,34.7,2.5,28.88,North,-999,-999.0,-999.0,25,-99.99,,,-99.99,VWS V14.01,2013-02-07 20:01:00,
2013-02-07 15:07:00,34.5,2.3,28.88,North,-999,-999.0,-999.0,25,-99.99,,,-99.99,VWS V14.01,2013-02-07 20:07:00,
2013-02-07 15:13:00,34.3,2.2,28.88,North,-999,-999.0,-999.0,25,-99.99,,,-99.99,VWS V14.01,2013-02-07 20:13:00,
2013-02-07 15:18:00,34.5,2.3,28.88,North,-999,-999.0,-999.0,25,-99.99,,,-99.99,VWS V14.01,2013-02-07 20:18:00,
2013-02-07 15:23:00,34.7,4.2,28.88,North,-999,-999.0,-999.0,27,-99.99,,,-99.99,VWS V14.01,2013-02-07 20:23:00,
2013-02-07 15:29:00,34.9,4.3,28.88,North,-999,-999.0,-999.0,27,-99.99,,,-99.99,VWS V14.01,2013-02-07 20:29:00,
2013-02-07 15:35:00,34.9,2.6,28.88,North,-999,-999.0,-999.0,25,-99.99,,,-99.99,VWS V14.01,2013-02-07 20:35:00,
2013-02-07 15:40:00,34.9,2.6,28.88,North,-999,-999.0,-999.0,25,-99.99,,,-99.99,VWS V14.01,2013-02-07 20:40:00,
2013-02-07 15:45:00,34.5,2.3,28.88,North,-999,-999.0,-999.0,25,-99.99,,,-99.99,VWS V14.01,2013-02-07 20:45:00,
2013-02-07 15:51:00,34.5,4.0,28.85,North,-999,-999.0,-999.0,27,-99.99,,,-99.99,VWS V14.01,2013-02-07 20:51:00,
2013-02-07 15:56:00,34.5,4.0,28.85,North,-999,-999.0,-999.0,27,-99.99,,,-99.99,VWS V14.01,2013-02-07 20:56:00,
2013-02-07 16:02:00,34.5,4.0,28.85,North,-999,-999.0,-999.0,27,-99.99,,,-99.99,VWS V14.01,2013-02-07 21:02:00,
2013-02-07 16:08:00,34.3,3.8,28.85,North,-999,-999.0,-999.0,27,-99.99,,,-99.99,VWS V14.01,2013-02-07 21:08:00,
2013-02-07 16:13:00,34.2,3.7,28.85,North,-999,-999.0,-999.0,27,-99.99,,,-99.99,VWS V14.01,2013-02-07 21:13:00,
2013-02-07 16:19:00,33.8,5.7,28.85,North,-999,-999.0,-999.0,30,-99.99,,,-99.99,VWS V14.01,2013-02-07 21:19:00,
2013-02-07 16:24:00,33.8,5.7,28.85,North,-999,-999.0,-999.0,30,-99.99,,,-99.99,VWS V14.01,2013-02-07 21:24:00,
2013-02-07 16:30:00,33.8,5.7,28.85,North,-999,-999.0,-999.0,30,-99.99,,,-99.99,VWS V14.01,2013-02-07 21:30:00,
2013-02-07 16:35:00,33.6,5.5,28.85,North,-999,-999.0,-999.0,30,-99.99,,,-99.99,VWS V14.01,2013-02-07 21:35:00,
2013-02-07 16:40:00,33.6,5.5,28.85,North,-999,-999.0,-999.0,30,-99.99,,,-99.99,VWS V14.01,2013-02-07 21:40:00,
2013-02-07 16:45:00,33.3,5.2,28.85,North,-999,-999.0,-999.0,30,-99.99,,,-99.99,VWS V14.01,2013-02-07 21:45:00,
2013-02-07 16:51:00,33.1,5.0,28.85,North,-999,-999.0,-999.0,30,-99.99,,,-99.99,VWS V14.01,2013-02-07 21:51:00,
2013-02-07 16:57:00,32.9,4.9,28.85,North,-999,-999.0,-999.0,30,-99.99,,,-99.99,VWS V14.01,2013-02-07 21:57:00,
2013-02-07 17:02:00,32.7,4.7,28.82,North,-999,-999.0,-999.0,30,-99.99,,,-99.99,VWS V14.01,2013-02-07 22:02:00,
2013-02-07 17:07:00,32.5,4.6,28.82,North,-999,-999.0,-999.0,30,-99.99,,,-99.99,VWS V14.01,2013-02-07 22:07:00,
2013-02-07 17:12:00,32.4,4.4,28.82,North,-999,-999.0,-999.0,30,-99.99,,,-99.99,VWS V14.01,2013-02-07 22:12:00,
2013-02-07 17:18:00,32.2,5.0,28.82,North,-999,-999.0,-999.0,31,-99.99,,,-99.99,VWS V14.01,2013-02-07 22:18:00,
2013-02-07 17:23:00,32.2,5.0,28.82,North,-999,-999.0,-999.0,31,-99.99,,,-99.99,VWS V14.01,2013-02-07 22:23:00,
2013-02-07 17:28:00,32.2,5.0,28.82,North,-999,-999.0,-999.0,31,-99.99,,,-99.99,VWS V14.01,2013-02-07 22:28:00,
2013-02-07 17:33:00,32.2,5.7,28.82,North,-999,-999.0,-999.0,32,-99.99,,,-99.99,VWS V14.01,2013-02-07 22:33:00,
2013-02-07 17:39:00,32.2,6.3,28.82,North,-999,-999.0,-999.0,33,-99.99,,,-99.99,VWS V14.01,2013-02-07 22:39:00,
2013-02-07 17:45:00,32.0,6.8,28.82,North,-999,-999.0,-999.0,34,-99.99,,,-99.99,VWS V14.01,2013-02-07 22:45:00,
2013-02-07 17:51:00,31.8,7.3,28.82,North,-999,-999.0,-999.0,35,-99.99,,,-99.99,VWS V14.01,2013-02-07 22:51:00,
2013-02-07 17:56:00,31.5,7.0,28.82,North,-999,-999.0,-999.0,35,-99.99,,,-99.99,VWS V14.01,2013-02-07 22:56:00,
2013-02-07 18:01:00,31.5,7.0,28.82,North,-999,-999.0,-999.0,35,-99.99,,,-99.99,VWS V14.01,2013-02-07 23:01:00,
2013-02-07 18:06:00,31.3,6.8,28.82,North,-999,-999.0,-999.0,35,-99.99,,,-99.99,VWS V14.01,2013-02-07 23:06:00,
2013-02-07 18:11:00,31.1,6.0,28.82,North,-999,-999.0,-999.0,34,-99.99,,,-99.99,VWS V14.01,2013-02-07 23:11:00,
2013-02-07 18:16:00,30.9,5.9,28.82,North,-999,-999.0,-999.0,34,-99.99,,,-99.99,VWS V14.01,2013-02-07 23:16:00,
2013-02-07 18:21:00,30.9,5.2,28.82,North,-999,-999.0,-999.0,33,-99.99,,,-99.99,VWS V14.01,2013-02-07 23:21:00,
2013-02-07 18:26:00,30.7,5.1,28.82,North,-999,-999.0,-999.0,33,-99.99,,,-99.99,VWS V14.01,2013-02-07 23:26:00,
2013-02-07 18:32:00,30.6,4.9,28.82,North,-999,-999.0,-999.0,33,-99.99,,,-99.99,VWS V14.01,2013-02-07 23:32:00,
2013-02-07 18:37:00,30.6,4.9,28.82,North,-999,-999.0,-999.0,33,-99.99,,,-99.99,VWS V14.01,2013-02-07 23:37:00,
2013-02-07 18:42:00,30.6,4.9,28.82,North,-999,-999.0,-999.0,33,-99.99,,,-99.99,VWS V14.01,2013-02-07 23:42:00,
2013-02-07 18:48:00,30.4,4.1,28.82,North,-999,-999.0,-999.0,32,-99.99,,,-99.99,VWS V14.01,2013-02-07 23:48:00,
2013-02-07 18:54:00,30.4,4.7,28.82,North,-999,-999.0,-999.0,33,-99.99,,,-99.99,VWS V14.01,2013-02-07 23:54:00,
2013-02-07 19:00:00,30.2,5.2,28.82,North,-999,-999.0,-999.0,34,-99.99,,,-99.99,VWS V14.01,2013-02-08 00:00:00,
2013-02-07 19:05:00,30.2,5.9,28.82,North,-999,-999.0,-999.0,35,-99.99,,,-99.99,VWS V14.01,2013-02-08 00:05:00,
2013-02-07 19:10:00,30.2,5.2,28.82,North,-999,-999.0,-999.0,34,-99.99,,,-99.99,VWS V14.01,2013-02-08 00:10:00,
2013-02-07 19:15:00,30.0,4.4,28.79,North,-999,-999.0,-999.0,33,-99.99,,,-99.99,VWS V14.01,2013-02-08 00:15:00,
2013-02-07 19:21:00,30.0,4.4,28.79,North,-999,-999.0,-999.0,33,-99.99,,,-99.99,VWS V14.01,2013-02-08 00:21:00,
2013-02-07 19:26:00,29.8,3.6,28.79,North,-999,-999.0,-999.0,32,-99.99,,,-99.99,VWS V14.01,2013-02-08 00:26:00,
2013-02-07 19:32:00,29.8,3.6,28.79,North,-999,-999.0,-999.0,32,-99.99,,,-99.99,VWS V14.01,2013-02-08 00:32:00,
2013-02-07 19:37:00,29.7,3.4,28.79,North,-999,-999.0,-999.0,32,-99.99,,,-99.99,VWS V14.01,2013-02-08 00:37:00,
2013-02-07 19:42:00,29.7,2.7,28.79,North,-999,-999.0,-999.0,31,-99.99,,,-99.99,VWS V14.01,2013-02-08 00:42:00,
2013-02-07 19:47:00,29.7,2.7,28.79,North,-999,-999.0,-999.0,31,-99.99,,,-99.99,VWS V14.01,2013-02-08 00:47:00,
2013-02-07 19:52:00,29.7,2.7,28.79,North,-999,-999.0,-999.0,31,-99.99,,,-99.99,VWS V14.01,2013-02-08 00:52:00,
2013-02-07 19:58:00,29.7,2.7,28.79,North,-999,-999.0,-999.0,31,-99.99,,,-99.99,VWS V14.01,2013-02-08 00:58:00,
2013-02-07 20:03:00,29.5,2.6,28.79,North,-999,-999.0,-999.0,31,-99.99,,,-99.99,VWS V14.01,2013-02-08 01:03:00,
2013-02-07 20:09:00,29.7,2.0,28.79,North,-999,-999.0,-999.0,30,-99.99,,,-99.99,VWS V14.01,2013-02-08 01:09:00,
2013-02-07 20:14:00,29.7,2.0,28.79,North,-999,-999.0,-999.0,30,-99.99,,,-99.99,VWS V14.01,2013-02-08 01:14:00,
2013-02-07 20:19:00,29.7,2.0,28.79,North,-999,-999.0,-999.0,30,-99.99,,,-99.99,VWS V14.01,2013-02-08 01:19:00,
2013-02-07 20:24:00,29.7,2.0,28.79,North,-999,-999.0,-999.0,30,-99.99,,,-99.99,VWS V14.01,2013-02-08 01:24:00,
2013-02-07 20:29:00,29.7,2.0,28.79,North,-999,-999.0,-999.0,30,-99.99,,,-99.99,VWS V14.01,2013-02-08 01:29:00,
2013-02-07 20:34:00,29.7,2.0,28.79,North,-999,-999.0,-999.0,30,-99.99,,,-99.99,VWS V14.01,2013-02-08 01:34:00,
2013-02-07 20:40:00,29.5,1.9,28.79,North,-999,-999.0,-999.0,30,-99.99,,,-99.99,VWS V14.01,2013-02-08 01:40:00,
2013-02-07 20:45:00,29.5,1.9,28.79,North,-999,-999.0,-999.0,30,-99.99,,,-99.99,VWS V14.01,2013-02-08 01:45:00,
2013-02-07 20:50:00,29.5,1.9,28.79,North,-999,-999.0,-999.0,30,-99.99,,,-99.99,VWS V14.01,2013-02-08 01:50:00,
2013-02-07 20:55:00,29.5,1.9,28.79,North,-999,-999.0,-999.0,30,-99.99,,,-99.99,VWS V14.01,2013-02-08 01:55:00,
2013-02-07 21:01:00,29.5,1.9,28.76,North,-999,-999.0,-999.0,30,-99.99,,,-99.99,VWS V14.01,2013-02-08 02:01:00,
2013-02-07 21:07:00,29.5,2.6,28.76,North,-999,-999.0,-999.0,31,-99.99,,,-99.99,VWS V14.01,2013-02-08 02:07:00,
2013-02-07 21:13:00,29.5,2.6,28.76,North,-999,-999.0,-999.0,31,-99.99,,,-99.99,VWS V14.01,2013-02-08 02:13:00,
2013-02-07 21:18:00,29.3,2.4,28.76,North,-999,-999.0,-999.0,31,-99.99,,,-99.99,VWS V14.01,2013-02-08 02:18:00,
2013-02-07 21:23:00,29.3,1.7,28.76,North,-999,-999.0,-999.0,30,-99.99,,,-99.99,VWS V14.01,2013-02-08 02:23:00,
2013-02-07 21:28:00,29.3,2.4,28.76,North,-999,-999.0,-999.0,31,-99.99,,,-99.99,VWS V14.01,2013-02-08 02:28:00,
2013-02-07 21:34:00,29.1,1.6,28.76,North,-999,-999.0,-999.0,30,-99.99,,,-99.99,VWS V14.01,2013-02-08 02:34:00,
2013-02-07 21:39:00,29.1,1.6,28.76,North,-999,-999.0,-999.0,30,-99.99,,,-99.99,VWS V14.01,2013-02-08 02:39:00,
2013-02-07 21:45:00,29.3,0.2,28.76,North,-999,-999.0,-999.0,28,-99.99,,,-99.99,VWS V14.01,2013-02-08 02:45:00,
2013-02-07 21:50:00,29.1,0.1,28.76,North,-999,-999.0,-999.0,28,-99.99,,,-99.99,VWS V14.01,2013-02-08 02:50:00,
2013-02-07 21:55:00,29.1,0.1,28.76,North,-999,-999.0,-999.0,28,-99.99,,,-99.99,VWS V14.01,2013-02-08 02:55:00,
2013-02-07 22:01:00,29.1,0.1,28.73,North,-999,-999.0,-999.0,28,-99.99,,,-99.99,VWS V14.01,2013-02-08 03:01:00,
2013-02-07 22:06:00,29.1,0.1,28.73,North,-999,-999.0,-999.0,28,-99.99,,,-99.99,VWS V14.01,2013-02-08 03:06:00,
2013-02-07 22:12:00,28.9,-2.5,28.73,North,-999,-999.0,-999.0,25,-99.99,,,-99.99,VWS V14.01,2013-02-08 03:12:00,
2013-02-07 22:18:00,28.9,-2.5,28.73,North,-999,-999.0,-999.0,25,-99.99,,,-99.99,VWS V14.01,2013-02-08 03:18:00,
2013-02-07 22:23:00,28.9,-2.5,28.73,North,-999,-999.0,-999.0,25,-99.99,,,-99.99,VWS V14.01,2013-02-08 03:23:00,
2013-02-07 22:28:00,28.9,-0.1,28.73,North,-999,-999.0,-999.0,28,-99.99,,,-99.99,VWS V14.01,2013-02-08 03:28:00,
2013-02-07 22:34:00,29.1,0.1,28.73,North,-999,-999.0,-999.0,28,-99.99,,,-99.99,VWS V14.01,2013-02-08 03:34:00,
2013-02-07 22:39:00,29.1,0.1,28.73,North,-999,-999.0,-999.0,28,-99.99,,,-99.99,VWS V14.01,2013-02-08 03:39:00,
2013-02-07 22:44:00,29.1,0.1,28.73,North,-999,-999.0,-999.0,28,-99.99,,,-99.99,VWS V14.01,2013-02-08 03:44:00,
2013-02-07 22:49:00,29.1,0.1,28.76,North,-999,-999.0,-999.0,28,-99.99,,,-99.99,VWS V14.01,2013-02-08 03:49:00,
2013-02-07 22:55:00,29.1,0.1,28.76,North,-999,-999.0,-999.0,28,-99.99,,,-99.99,VWS V14.01,2013-02-08 03:55:00,
2013-02-07 23:00:00,29.1,0.1,28.76,North,-999,-999.0,-999.0,28,-99.99,,,-99.99,VWS V14.01,2013-02-08 04:00:00,
2013-02-07 23:05:00,29.1,1.6,28.76,North,-999,-999.0,-999.0,30,-99.99,,,-99.99,VWS V14.01,2013-02-08 04:05:00,
2013-02-07 23:10:00,29.1,1.6,28.76,North,-999,-999.0,-999.0,30,-99.99,,,-99.99,VWS V14.01,2013-02-08 04:10:00,
2013-02-07 23:15:00,29.1,1.6,28.73,North,-999,-999.0,-999.0,30,-99.99,,,-99.99,VWS V14.01,2013-02-08 04:15:00,
2013-02-07 23:21:00,28.9,2.8,28.73,North,-999,-999.0,-999.0,32,-99.99,,,-99.99,VWS V14.01,2013-02-08 04:21:00,
2013-02-07 23:27:00,28.6,3.8,28.73,North,-999,-999.0,-999.0,34,-99.99,,,-99.99,VWS V14.01,2013-02-08 04:27:00,
2013-02-07 23:32:00,28.2,7.0,28.73,North,-999,-999.0,-999.0,40,-99.99,,,-99.99,VWS V14.01,2013-02-08 04:32:00,
2013-02-07 23:37:00,28.0,7.9,28.73,North,-999,-999.0,-999.0,42,-99.99,,,-99.99,VWS V14.01,2013-02-08 04:37:00,
2013-02-07 23:43:00,27.9,8.8,28.73,North,-999,-999.0,-999.0,44,-99.99,,,-99.99,VWS V14.01,2013-02-08 04:43:00,
2013-02-07 23:49:00,27.7,10.6,28.73,North,-999,-999.0,-999.0,48,-99.99,,,-99.99,VWS V14.01,2013-02-08 04:49:00,
2013-02-07 23:54:00,27.5,11.3,28.73,North,-999,-999.0,-999.0,50,-99.99,,,-99.99,VWS V14.01,2013-02-08 04:54:00,